KA8OAD-1 Weather Reports


Display with metric or nautical units.
time (UTC)temp
F
wind
direction
speed
MPH
gust
MPH
rain 1hr
in
rain 24hr
in
rain mn
in
humidity
%
barometer
mb
20260504004504 55 236 2.0 4.0 0.00 0.00 0.00 48 1010.6
20260504004004 56 239 2.0 4.0 0.00 0.00 0.00 48 1010.6
20260504003503 56 241 1.0 3.0 0.00 0.00 0.00 48 1010.6
20260504002004 56 233 2.0 4.0 0.00 0.00 0.00 46 1010.6
20260504001504 56 223 2.0 5.0 0.00 0.00 0.00 45 1010.6
20260504000504 57 224 3.0 8.0 0.00 0.00 0.00 45 1010.6
20260504000005 57 227 3.0 8.0 0.00 0.00 0.00 45 1010.6
20260503235504 57 228 4.0 11.0 0.00 0.00 0.00 45 1010.6
20260503235005 57 227 4.0 11.0 0.00 0.00 0.00 44 1010.6
20260503234504 57 231 4.0 11.0 0.00 0.00 0.00 45 1010.7
20260503234005 58 229 3.0 11.0 0.00 0.00 0.00 43 1010.7
20260503233504 58 231 3.0 10.0 0.00 0.00 0.00 43 1010.6
20260503233005 58 227 4.0 10.0 0.00 0.00 0.00 43 1010.8
20260503232504 58 221 3.0 9.0 0.00 0.00 0.00 43 1010.8
20260503231004 58 230 3.0 9.0 0.00 0.00 0.00 43 1010.8
20260503230504 58 229 3.0 9.0 0.00 0.00 0.00 42 1010.8
20260503230005 58 234 3.0 8.0 0.00 0.00 0.00 43 1010.8
20260503225504 58 228 3.0 8.0 0.00 0.00 0.00 43 1010.9
20260503225004 58 230 4.0 10.0 0.00 0.00 0.00 43 1010.9
20260503224504 58 239 4.0 11.0 0.00 0.00 0.00 42 1010.9
20260503224004 58 236 4.0 11.0 0.00 0.00 0.00 42 1010.9
20260503223503 58 228 4.0 9.0 0.00 0.00 0.00 43 1011.0
20260503222504 59 233 4.0 9.0 0.00 0.00 0.00 42 1011.1
20260503222004 59 239 3.0 9.0 0.00 0.00 0.00 42 1011.1
20260503221504 59 260 3.0 9.0 0.00 0.00 0.00 42 1011.1
20260503221005 59 248 4.0 13.0 0.00 0.00 0.00 41 1011.1
20260503220504 59 246 4.0 13.0 0.00 0.00 0.00 41 1010.9
20260503220005 60 266 3.0 8.0 0.00 0.00 0.00 41 1011.0
20260503215504 60 263 3.0 10.0 0.00 0.00 0.00 41 1011.1
20260503215004 60 254 3.0 11.0 0.00 0.00 0.00 41 1011.2
20260503214504 60 240 3.0 11.0 0.00 0.00 0.00 41 1011.1
20260503214004 60 239 4.0 13.0 0.00 0.00 0.00 41 1011.1
20260503213503 60 237 3.0 13.0 0.00 0.00 0.00 41 1011.1
20260503213004 60 239 5.0 12.0 0.00 0.00 0.00 39 1011.1
20260503212504 60 243 4.0 12.0 0.00 0.00 0.00 40 1011.0
20260503212005 60 234 4.0 10.0 0.00 0.00 0.00 39 1011.1
20260503211504 61 237 5.0 12.0 0.00 0.00 0.00 37 1011.1
20260503211005 61 256 5.0 15.0 0.00 0.00 0.00 39 1011.1
20260503210005 61 247 4.0 14.0 0.00 0.00 0.00 41 1011.0
20260503205503 61 245 5.0 14.0 0.00 0.00 0.00 41 1011.1
20260503205004 61 239 4.0 12.0 0.00 0.00 0.00 40 1011.1
20260503204504 61 254 4.0 15.0 0.00 0.00 0.00 40 1011.1
20260503204005 61 244 4.0 15.0 0.00 0.00 0.00 40 1011.2
20260503203504 61 231 4.0 10.0 0.00 0.00 0.00 39 1011.0
20260503203005 61 241 4.0 10.0 0.00 0.00 0.00 41 1011.2
20260503202504 61 248 4.0 10.0 0.00 0.00 0.00 40 1011.3
20260503202004 61 242 4.0 10.0 0.00 0.00 0.00 39 1011.3
20260503201004 61 240 4.0 14.0 0.00 0.00 0.00 41 1011.4
20260503195504 62 253 4.0 12.0 0.00 0.00 0.00 40 1011.8
20260503195005 62 251 5.0 14.0 0.00 0.00 0.00 39 1011.8
20260503194504 62 249 5.0 14.0 0.00 0.00 0.00 39 1011.9
20260503194005 62 236 5.0 14.0 0.00 0.00 0.00 40 1012.1
20260503193504 62 236 5.0 14.0 0.00 0.00 0.00 37 1012.1
20260503193005 62 236 5.0 12.0 0.00 0.00 0.00 39 1012.2
20260503192504 63 242 5.0 12.0 0.00 0.00 0.00 38 1012.2
20260503192004 63 245 5.0 11.0 0.00 0.00 0.00 39 1012.4
20260503191504 63 229 5.0 12.0 0.00 0.00 0.00 36 1012.4
20260503191005 64 249 5.0 15.0 0.00 0.00 0.00 36 1012.2
20260503190504 63 281 6.0 16.0 0.00 0.00 0.00 37 1012.4
20260503190005 63 290 6.0 19.0 0.00 0.00 0.00 36 1012.6
20260503185503 63 288 5.0 19.0 0.00 0.00 0.00 35 1012.5
20260503185004 63 256 4.0 14.0 0.00 0.00 0.00 38 1012.6
20260503184005 63 290 5.0 15.0 0.00 0.00 0.00 36 1012.7
20260503183504 62 288 5.0 15.0 0.00 0.00 0.00 40 1012.8
20260503182504 61 277 5.0 16.0 0.00 0.01 0.00 43 1013.0
20260503182005 61 265 5.0 16.0 0.00 0.01 0.00 40 1012.9
20260503181505 61 233 5.0 14.0 0.00 0.01 0.00 40 1012.9
20260503181005 61 247 6.0 15.0 0.00 0.01 0.00 40 1012.9
20260503180504 61 239 6.0 15.0 0.00 0.01 0.00 39 1012.9
20260503180005 62 232 5.0 14.0 0.00 0.01 0.00 38 1013.0
20260503175503 62 247 4.0 13.0 0.00 0.01 0.00 39 1013.1
20260503175004 63 256 4.0 10.0 0.00 0.01 0.00 38 1013.1
20260503174504 64 267 4.0 12.0 0.00 0.01 0.00 38 1013.3
20260503173503 64 249 6.0 15.0 0.00 0.01 0.00 39 1013.4
20260503173005 64 276 4.0 12.0 0.00 0.01 0.00 41 1013.3
20260503172004 64 236 4.0 13.0 0.00 0.01 0.00 38 1013.6
20260503171504 64 234 4.0 11.0 0.00 0.01 0.00 40 1013.6
20260503171005 63 268 5.0 16.0 0.00 0.01 0.00 41 1013.6
20260503170505 63 270 5.0 16.0 0.00 0.01 0.00 40 1013.8
20260503151004 54 237 4.0 15.0 0.00 0.01 0.00 49 1014.7
20260503150503 54 224 3.0 10.0 0.00 0.01 0.00 48 1014.8
20260503131004 42 211 2.0 5.0 0.00 0.01 0.00 72 1015.3
20260503130504 41 222 1.0 5.0 0.00 0.01 0.00 75 1015.4
20260503110504 32 0 0.0 0.0 0.00 0.01 0.00 87 1014.7
20260503090503 34 0 0.0 0.0 0.00 0.03 0.00 85 1014.4
20260503081504 35 0 0.0 0.0 0.00 0.06 0.00 84 1014.5
20260503081004 35 0 0.0 0.0 0.00 0.06 0.00 84 1014.4
20260503072004 36 0 0.0 0.0 0.00 0.07 0.00 81 1014.4
20260503071005 36 0 0.0 0.0 0.00 0.08 0.00 81 1014.4
20260503055005 38 0 0.0 0.0 0.00 0.13 0.00 78 1014.7
20260503054504 39 0 0.0 0.0 0.00 0.14 0.00 78 1014.8
20260503053004 39 0 0.0 0.0 0.00 0.16 0.00 78 1014.8
20260503052504 39 0 0.0 0.0 0.00 0.17 0.00 78 1014.8
20260503052005 39 0 0.0 0.0 0.00 0.18 0.00 78 1014.8
20260503051504 39 0 0.0 0.0 0.00 0.18 0.00 79 1014.9
20260503051005 40 0 0.0 0.0 0.00 0.19 0.00 79 1014.9
20260503050503 40 0 0.0 0.0 0.00 0.20 0.00 79 1014.8
20260503050005 40 0 0.0 0.0 0.00 0.20 0.00 79 1014.8
20260503045503 40 0 0.0 0.0 0.00 0.20 0.00 79 1014.9
20260503044504 40 0 0.0 0.0 0.00 0.20 0.00 79 1014.9
20260503044004 40 0 0.0 0.0 0.00 0.20 0.00 79 1014.9
20260503043504 40 0 0.0 0.0 0.00 0.20 0.00 80 1014.9
20260503043004 40 0 0.0 0.0 0.00 0.20 0.00 80 1014.9
20260503042504 40 0 0.0 0.0 0.00 0.20 0.00 80 1014.9
20260503042004 40 0 0.0 0.0 0.00 0.20 0.00 80 1015.0
20260503041503 40 257 1.0 2.0 0.00 0.20 0.00 80 1015.0
20260503041005 40 257 1.0 2.0 0.00 0.20 0.00 80 1015.0
20260503040007 40 0 0.0 0.0 0.00 0.20 0.00 80 1015.1
20260503035504 40 0 0.0 0.0 0.00 0.20 0.20 80 1015.1
20260503035005 40 0 0.0 0.0 0.00 0.20 0.20 81 1015.1
20260503034504 40 0 0.0 0.0 0.00 0.20 0.20 81 1015.1
20260503034004 40 0 0.0 0.0 0.00 0.20 0.20 81 1015.1
20260503032503 40 0 0.0 0.0 0.00 0.20 0.20 81 1015.1
20260503032005 40 0 0.0 0.0 0.00 0.20 0.20 81 1015.2
20260503031004 40 0 0.0 0.0 0.00 0.20 0.20 81 1015.2
20260503030504 40 0 0.0 0.0 0.00 0.20 0.20 81 1015.3
20260503030004 40 0 0.0 0.0 0.00 0.20 0.20 81 1015.3
20260503025504 40 0 0.0 0.0 0.00 0.20 0.20 80 1015.4
20260503025004 40 0 0.0 0.0 0.00 0.20 0.20 80 1015.4
20260503024004 40 0 0.0 0.0 0.00 0.20 0.20 79 1015.5
20260503023504 40 0 0.0 0.0 0.00 0.20 0.20 79 1015.5
20260503023004 40 0 0.0 0.0 0.00 0.20 0.20 79 1015.5
20260503022504 40 0 0.0 0.0 0.00 0.20 0.20 78 1015.5
20260503022005 40 0 0.0 0.0 0.00 0.20 0.20 78 1015.6
20260503021503 40 0 0.0 0.0 0.00 0.20 0.20 78 1015.5
20260503021005 40 0 0.0 0.0 0.00 0.20 0.20 77 1015.5
20260503020504 40 0 0.0 0.0 0.00 0.20 0.20 77 1015.5
20260503020004 40 0 0.0 0.0 0.00 0.20 0.20 77 1015.4
20260503015504 41 0 0.0 0.0 0.00 0.20 0.20 77 1015.5
20260503015004 41 0 0.0 0.0 0.00 0.20 0.20 76 1015.5
20260503014005 41 0 0.0 0.0 0.00 0.20 0.20 75 1015.4
20260503013005 41 0 0.0 0.0 0.00 0.20 0.20 74 1015.4
20260503012503 41 0 0.0 0.0 0.00 0.20 0.20 74 1015.4
20260503012004 41 0 0.0 0.0 0.00 0.20 0.20 73 1015.4
20260503011504 42 0 0.0 0.0 0.00 0.20 0.20 73 1015.3
20260503010504 42 0 0.0 0.0 0.00 0.20 0.20 72 1015.3
20260503010004 42 0 0.0 0.0 0.00 0.20 0.20 71 1015.3
20260503005504 42 0 0.0 0.0 0.00 0.20 0.20 71 1015.3
20260503005004 42 0 0.0 0.0 0.00 0.20 0.20 70 1015.3